[[{"header":{"parameterUnit":"m.s-1","parameterCategory":1,"la1":30.2991,"la2":30.254,"lo1":-89.0895,"lo2":-89.0444,"dy":0.0017,"dx":0.0017,"nx":28,"ny":28,"refTime":"2025-06-14T09:00:00:Z","depth":0,"parameterNumber":2,"parameterNumberName":"U-component_of_WINDS"},"data":[0,0,0,0,0,0,0,0,0,0,0,0,0,0,0,0,0,0,0,0,0,0,0,0,0,0,0,0,0,0,0,0,0,0,0,0,0,0,0,0,0,0,0,0,0,0,0,0,0,0,0,0,0,0,0,0,0,0,4.2997,4.2999,0,4.3143,4.3145,4.3146,4.3101,4.3098,4.3095,4.3092,4.3241,4.3248,4.3255,0,0,0,0,0,0,0,0,0,0,0,0,0,4.2677,4.2684,4.2997,4.2999,4.3001,4.3143,4.3145,4.3147,4.3102,4.3098,4.3094,4.3091,4.3239,4.3247,4.3255,0,0,0,0,0,0,0,0,0,0,0,0,0,4.2819,4.2686,4.2997,4.2995,4.2997,4.3142,4.3145,4.3147,4.3102,4.3098,4.3093,4.3089,4.3236,4.3246,4.3256,4.3412,0,0,4.3288,4.3292,0,0,0,0,0,0,0,0,4.2811,4.2831,4.2994,4.2996,4.2998,4.3099,4.3087,4.3236,4.3104,4.3062,4.3092,4.3087,4.3198,4.3211,4.3248,4.3419,4.3426,4.3289,4.3295,4.3299,4.3302,0,0,0,0,0,0,0,4.2801,4.2824,4.3055,4.2996,4.2999,4.2987,4.3002,4.3115,4.3154,4.3066,4.3063,4.3081,4.3198,4.3239,4.3251,4.3428,4.3288,4.3297,4.3304,4.3308,4.373,4.3734,0,0,0,0,0,0,4.2791,4.2816,4.305,4.3059,4.2891,4.2996,4.3013,4.3071,4.3153,4.3161,4.3084,4.3078,4.3223,4.324,4.3257,4.3441,4.3299,4.3309,4.3315,4.3725,4.3731,4.3736,0,0,0,0,0,0,4.2784,4.2812,4.3044,4.2937,4.2966,4.3007,4.3072,4.3077,4.3117,4.3167,4.3174,4.3119,4.322,4.3242,4.3373,4.3446,4.3313,4.3323,4.3719,4.3727,4.3734,4.3814,0,0,0,0,0,0,4.2775,4.281,4.287,4.2939,4.2972,4.3159,4.3077,4.3083,4.3135,4.3128,4.3201,4.3209,4.3218,4.3358,4.3383,4.3457,4.3331,4.3712,4.3722,4.3731,4.3805,4.3823,4.3839,0,0,0,0,0,4.2764,4.2888,4.2873,4.2902,4.3048,4.3164,4.3182,4.3191,4.3141,4.3201,4.3233,4.3206,4.3434,4.3372,4.34,4.3478,4.3708,4.3719,4.373,4.3797,4.3819,4.3838,0,0,0,0,0,0,4.2827,4.2897,4.2882,4.3032,4.3092,4.3156,4.3232,4.3215,4.3291,4.3281,4.3288,4.3305,4.3438,4.3472,4.3401,4.3631,4.3563,4.3581,4.3604,4.3626,4.3643,4.3631,4.3339,0,0,0,0,0,4.2858,4.2947,4.3003,4.313,4.3161,4.3191,4.3242,4.3243,4.3306,4.3331,4.3372,4.3434,4.3519,4.3575,4.3656,4.381,4.3823,4.3878,4.3895,4.3908,4.3923,4.4003,4.4026,4.3774,4.3773,4.3773,0,0,4.2924,4.2973,4.3029,4.3144,4.319,4.328,4.3213,4.3312,4.3378,4.3346,4.3471,4.3504,4.3573,4.3715,4.3779,4.3747,4.3996,4.3923,4.3934,4.394,4.4017,4.4041,4.4062,4.3781,4.378,4.3779,0,0,4.3089,4.3136,4.3245,4.3293,4.3365,4.3384,4.341,4.3476,4.3496,4.3622,4.3599,4.3678,4.3825,4.3874,4.3918,4.4099,4.4077,4.4126,4.4214,4.4292,4.4312,4.433,4.4391,4.4413,4.4141,4.4141,4.4141,0,4.3161,4.3297,4.3304,4.3404,4.3454,4.3428,4.3538,4.3584,4.3679,4.3713,4.3675,4.3857,4.3902,4.4053,4.4097,4.4135,4.4163,4.4117,4.4309,4.4326,4.4343,4.4401,4.4425,4.4146,4.4145,4.4145,4.4144,0,4.338,4.3474,4.3554,4.3644,4.3704,4.3808,4.383,4.3889,4.3885,4.3907,4.4034,4.4087,4.4177,4.4214,4.4211,4.4364,4.4341,4.4306,4.4237,4.4372,4.4427,4.445,4.4154,4.4152,4.415,4.4149,0,0,4.3589,4.3681,4.3709,4.3749,4.3825,4.3897,4.4,4.4087,4.4136,4.4202,4.4286,4.441,4.4378,4.4428,4.4431,4.45,4.4635,4.4456,4.4458,4.4484,4.4803,4.4826,4.4852,4.4622,4.4626,4.463,4.4796,0,4.3758,4.3937,4.3946,4.4108,4.4193,4.417,4.4258,4.4314,4.4338,4.4413,4.4439,4.4525,4.4478,4.4507,4.4575,4.4605,4.4699,4.4593,4.4698,4.4701,4.4678,4.4881,4.4907,4.5061,4.4817,4.4821,4.4824,0,4.3979,4.4049,4.422,4.4281,4.4317,4.4397,4.4476,4.4549,4.4611,4.4623,4.4678,4.467,4.4773,4.4702,4.4843,4.477,4.4814,4.4835,4.4841,4.4849,4.4769,4.4891,4.5111,4.5133,4.4858,4.4856,4.4853,0,4.4109,4.4248,4.4367,4.4402,4.4477,4.4533,4.4567,4.4624,4.4675,4.4744,4.4777,4.4858,4.4901,4.4963,4.4977,4.4925,4.5116,4.5048,4.5127,4.5126,4.5166,4.5163,4.5392,4.52,4.5199,4.5199,4.5198,0,4.4295,4.4399,4.4426,4.4499,4.4615,4.4623,4.4737,4.4767,4.4818,4.4895,4.4881,4.4953,4.4968,4.5044,4.5055,4.5167,4.5188,4.5199,4.52,4.5199,4.5197,4.5225,4.5214,4.5205,4.5204,4.5202,4.5201,0,4.4459,4.4482,4.4609,4.467,4.4687,4.4769,4.482,4.4889,4.4911,4.5009,4.5032,4.5066,4.5153,4.5173,4.5279,4.5286,4.5418,4.5411,4.5397,4.5395,4.5472,4.5463,4.5725,4.5758,4.5547,4.5549,4.5551,0,4.4575,4.4654,4.4722,4.4773,4.4809,4.4891,4.4942,4.4953,4.5007,4.5082,4.5141,4.5227,4.5296,4.5437,4.5471,4.555,4.5542,4.5628,4.5554,4.5548,4.5539,4.5533,4.5539,4.5642,4.5644,4.5646,4.5647,0,4.4776,4.4783,4.4857,4.4936,4.4997,4.5059,4.5119,4.5161,4.518,4.5241,4.533,4.5383,4.5489,4.5573,4.5652,4.5686,4.5669,4.5671,4.5693,4.569,4.5677,4.5682,4.5432,4.5664,4.5663,4.5661,4.566,4.566,4.4918,4.4986,4.5043,4.5126,4.5172,4.5227,4.5293,4.5323,4.5397,4.5483,4.5486,4.5582,4.5639,4.5743,4.5782,4.5856,4.5829,4.5862,4.5869,4.5876,4.5881,4.5668,4.5871,4.587,4.587,4.587,4.5869,0,4.5115,4.515,4.5227,4.5309,4.5374,4.5353,4.5416,4.5471,4.5556,4.5611,4.5678,4.5779,4.586,4.59,4.5979,4.6031,4.6025,4.6051,4.6046,4.6053,4.5903,4.5874,4.6055,4.6055,4.6055,4.6055,4.6055,4.6054,4.5225,4.5338,4.5351,4.5486,4.552,4.5614,4.5652,4.5702,4.5745,4.5858,4.5925,4.595,4.5997,4.608,4.6153,4.6162,4.6191,4.622,4.6226,4.6084,4.6065,4.6046,4.6019,4.6227,4.6228,4.6369,4.6371,4.6372]},{"header":{"parameterUnit":"m.s-1","parameterCategory":1,"la1":30.2991,"la2":30.254,"lo1":-89.0895,"lo2":-89.0444,"dy":0.0017,"dx":0.0017,"nx":28,"ny":28,"refTime":"2025-06-14T09:00:00:Z","depth":0,"parameterNumber":3,"parameterNumberName":"V-component_of_WINDS"},"data":[0,0,0,0,0,0,0,0,0,0,0,0,0,0,0,0,0,0,0,0,0,0,0,0,0,0,0,0,0,0,0,0,0,0,0,0,0,0,0,0,0,0,0,0,0,0,0,0,0,0,0,0,0,0,0,0,0,0,1.6695,1.6696,0,1.677,1.6771,1.6772,1.6765,1.6764,1.6762,1.6761,1.6839,1.6842,1.6845,0,0,0,0,0,0,0,0,0,0,0,0,0,1.6544,1.6547,1.6695,1.6696,1.6697,1.677,1.6771,1.6772,1.6765,1.6764,1.6762,1.6761,1.6838,1.6842,1.6845,0,0,0,0,0,0,0,0,0,0,0,0,0,1.6613,1.6548,1.6694,1.6702,1.6703,1.677,1.6771,1.6772,1.6765,1.6764,1.6762,1.676,1.6837,1.6841,1.6846,1.691,0,0,1.686,1.6862,0,0,0,0,0,0,0,0,1.6609,1.6619,1.67,1.6701,1.6703,1.6756,1.6746,1.6818,1.6766,1.6742,1.6761,1.6759,1.6813,1.6819,1.6837,1.6914,1.6917,1.6861,1.6864,1.6866,1.6867,0,0,0,0,0,0,0,1.6605,1.6616,1.6724,1.6701,1.6703,1.6701,1.6709,1.676,1.6786,1.6744,1.6743,1.6752,1.6813,1.6833,1.6839,1.6918,1.6861,1.6865,1.6868,1.687,1.7049,1.705,0,0,0,0,0,0,1.6598,1.6612,1.6722,1.6727,1.6651,1.6705,1.6714,1.6741,1.6786,1.6791,1.6754,1.6752,1.6826,1.6834,1.6842,1.6919,1.6866,1.687,1.6873,1.7047,1.7049,1.7051,0,0,0,0,0,0,1.6595,1.6608,1.6719,1.6669,1.6683,1.671,1.674,1.6743,1.6763,1.6793,1.6798,1.6769,1.6825,1.6835,1.6893,1.6921,1.6872,1.6877,1.7044,1.7047,1.705,1.7074,0,0,0,0,0,0,1.6591,1.6607,1.6632,1.667,1.6686,1.6769,1.6742,1.6746,1.6771,1.6769,1.6809,1.6814,1.6824,1.6886,1.6897,1.6927,1.688,1.7042,1.7046,1.7049,1.7071,1.7077,1.7083,0,0,0,0,0,1.6585,1.6636,1.6633,1.6647,1.6718,1.6771,1.678,1.6791,1.6773,1.6798,1.6817,1.6812,1.6916,1.6892,1.6905,1.6936,1.704,1.7045,1.7049,1.7068,1.7076,1.7083,0,0,0,0,0,0,1.6602,1.6641,1.6639,1.6703,1.6733,1.6769,1.6801,1.6799,1.6835,1.6832,1.6844,1.6853,1.6911,1.6929,1.6901,1.7,1.6976,1.6983,1.6986,1.6994,1.7,1.6994,1.6884,0,0,0,0,0,1.6612,1.6652,1.6685,1.6739,1.6754,1.6775,1.6799,1.6804,1.6836,1.6849,1.6873,1.6904,1.6943,1.697,1.7008,1.7073,1.7081,1.7101,1.7107,1.7112,1.7118,1.7152,1.7161,1.7065,1.7065,1.7065,0,0,1.6636,1.6662,1.6687,1.6742,1.6767,1.6807,1.6786,1.683,1.686,1.6856,1.6911,1.693,1.6965,1.7026,1.7054,1.7043,1.7146,1.7117,1.7121,1.7125,1.7158,1.7167,1.7175,1.7068,1.7068,1.7067,0,0,1.6699,1.6724,1.677,1.6795,1.6831,1.6845,1.6856,1.6892,1.6904,1.6959,1.6956,1.6992,1.706,1.7085,1.7107,1.7178,1.7174,1.719,1.7222,1.7255,1.7263,1.7269,1.7294,1.7303,1.7196,1.7196,1.7196,0,1.6724,1.6785,1.6795,1.6839,1.6863,1.686,1.6907,1.693,1.6978,1.6994,1.6981,1.7065,1.7089,1.7156,1.7173,1.7191,1.7203,1.7186,1.7261,1.7268,1.7274,1.7298,1.7307,1.7197,1.7197,1.7197,1.7197,0,1.6813,1.6855,1.6889,1.6934,1.6961,1.7007,1.7023,1.705,1.7053,1.7067,1.7123,1.7151,1.7194,1.721,1.7214,1.7277,1.7269,1.7258,1.7234,1.7285,1.7307,1.7316,1.72,1.7199,1.7199,1.7198,0,0,1.689,1.6939,1.6951,1.697,1.701,1.7042,1.7087,1.7129,1.7151,1.7183,1.7221,1.7278,1.7267,1.7292,1.7298,1.7327,1.738,1.7313,1.7314,1.7324,1.745,1.7458,1.7468,1.7377,1.7379,1.7381,1.7447,0,1.6957,1.7036,1.7046,1.7116,1.7155,1.7151,1.719,1.7218,1.7232,1.7267,1.7283,1.7322,1.7306,1.7321,1.735,1.7368,1.7406,1.7363,1.7412,1.7414,1.7403,1.748,1.7489,1.755,1.7456,1.7457,1.7458,0,1.7046,1.708,1.7154,1.7186,1.7203,1.7238,1.7276,1.7309,1.734,1.7348,1.7375,1.7377,1.7422,1.7396,1.7458,1.7429,1.7449,1.7461,1.7463,1.7469,1.7439,1.7487,1.757,1.7579,1.7472,1.7471,1.747,0,1.7094,1.7158,1.7211,1.7228,1.7267,1.7291,1.7309,1.7338,1.7362,1.7395,1.7411,1.7449,1.747,1.7499,1.751,1.7491,1.7572,1.7547,1.7579,1.7579,1.7597,1.7596,1.7685,1.761,1.761,1.761,1.761,0,1.7168,1.7213,1.7233,1.7265,1.7315,1.7325,1.7374,1.739,1.7416,1.7451,1.745,1.7483,1.7496,1.7531,1.754,1.759,1.7599,1.7607,1.7609,1.7607,1.7606,1.7621,1.7617,1.7613,1.7612,1.7611,1.7611,0,1.7231,1.7245,1.7302,1.7334,1.7343,1.7379,1.7406,1.7436,1.7449,1.7493,1.7504,1.7525,1.7565,1.758,1.7629,1.7635,1.7692,1.7691,1.7682,1.7682,1.7714,1.771,1.7815,1.7829,1.7746,1.7747,1.7747,0,1.7277,1.7311,1.7347,1.737,1.7388,1.7425,1.7449,1.746,1.7485,1.7522,1.7548,1.7588,1.762,1.7685,1.7704,1.7741,1.7741,1.7774,1.7746,1.7743,1.774,1.7738,1.7741,1.778,1.7781,1.7781,1.7782,0,1.7357,1.7362,1.7397,1.7434,1.7462,1.7492,1.7521,1.7539,1.7554,1.7582,1.7623,1.7648,1.7698,1.7737,1.7775,1.7792,1.779,1.7791,1.78,1.7799,1.7792,1.7795,1.7696,1.7788,1.7788,1.7787,1.7787,1.7787,1.7413,1.7443,1.7472,1.751,1.7532,1.7559,1.7589,1.7605,1.7639,1.768,1.7684,1.7728,1.7757,1.7807,1.7826,1.786,1.7851,1.7865,1.7868,1.7871,1.7873,1.7786,1.7867,1.7867,1.7867,1.7867,1.7867,0,1.7492,1.751,1.7545,1.7585,1.7615,1.7609,1.764,1.7665,1.7704,1.773,1.7762,1.7808,1.7846,1.7868,1.7905,1.7928,1.7928,1.7938,1.7936,1.794,1.788,1.7868,1.7937,1.7937,1.7937,1.7937,1.7937,1.7937,1.7537,1.7587,1.7596,1.7656,1.7674,1.7717,1.7735,1.7759,1.778,1.7832,1.7863,1.7877,1.7901,1.794,1.7974,1.7979,1.7993,1.8004,1.8008,1.7952,1.7944,1.7938,1.7926,1.8007,1.8007,1.8065,1.8066,1.8066]}]]